Content
SEND FEEDBACK

Daily
Averages
Monthly
Summary
Canada

MONTREAL, QUEBEC


Home > North America > Canada > Quebec
Elevation: 118 feet     Latitude: 45 28N     Longitude: 073 45W

WEATHER
 
SELECT A DAY
Number of Records: 198,744;   Date Range: 1/1/95 - 9/15/14
 
SHARE

PRINT THIS DATA

[ ← Previous Day ]
WEATHER ALMANAC - JULY 21, 2013
[ Next Day → ]
[ °C ]   °F
Weather ElementAverageHighLow
Temperature64.7 °F69.8 °F (3:00 pm)57.2 °F (6:00 am)
Dewpoint46.6 °F50 °F (7:00 pm)42.8 °F (9:00 am)
Humidity50.9 %67 % (6:00 am)33 % (8:00 pm)
Barometer30.00 in30.05 in (11:00 am)29.89 in (1:00 am)
Wind Speed7.5 mph15 mph (1:00 am)
Wind Gust18.4 mph (2:00 am)
Weather ElementAverage
Visibility25.3 mi
Wind DirectionSSE (157 °)

Weather ElementTotal
Precipitation---
Heating Degree Days1.5 (Base 65)
Growing Degree Days13.5 (Base 50)
Averaged from 27 records on July 21, 2013
WEATHER CONDITIONS BREAKOUT
WIND DIRECTION BREAKOUT
WEATHER BY HOUR - JULY 21, 2013
[ °C ]   °F
Local TimeTemperatureDewpointHumidityBarometerVisibilityWind DirectionWind SpeedGust SpeedPrecipitationEventsConditions
1:00 AM64.4 °F48.2 °F56 %29.89 in15.0 miNorth (360°)15.0 mphMostly Cloudy
2:00 AM62.0 °F48.0 °F50 %29.92 in15.0 miNorth11.5 mphMostly Cloudy
2:00 AM62.6 °F48.2 °F59 %29.92 in15.0 miNorth (360°)9.2 mph18.4 mphMostly Cloudy
3:00 AM60.8 °F48.2 °F63 %29.93 in15.0 miNorth (10°)12.7 mphMostly Cloudy
4:00 AM60.8 °F46.4 °F59 %29.96 in15.0 miNNE (20°)11.5 mphMostly Cloudy
5:00 AM59.0 °F46.4 °F63 %29.98 in15.0 miNorth (10°)8.1 mphMostly Cloudy
6:00 AM57.2 °F46.4 °F67 %29.99 in30.0 miNNE (20°)8.1 mphScattered Clouds
7:00 AM59.0 °F44.6 °F59 %30.01 in30.0 miNorth (360°)11.5 mphMostly Cloudy
8:00 AM60.0 °F45.0 °F46 %30.03 in28.0 miNNE (30°)10.4 mphPartly Cloudy
8:00 AM59.0 °F44.6 °F59 %30.03 in30.0 miNNE (20°)10.4 mphScattered Clouds
9:00 AM60.8 °F42.8 °F52 %30.04 in30.0 miNNE (20°)10.4 mphPartly Cloudy
10:00 AM64.4 °F44.6 °F49 %30.04 in30.0 miNNE (20°)10.4 mphScattered Clouds
11:00 AM64.4 °F42.8 °F45 %30.05 in30.0 miNorth (360°)5.8 mphScattered Clouds
12:00 PM66.2 °F44.6 °F46 %30.04 in30.0 miVariable4.6 mphPartly Cloudy
1:00 PM68.0 °F46.4 °F46 %30.04 in30.0 miCalmPartly Cloudy
2:00 PM69.0 °F47.0 °F34 %30.02 in28.0 miWSW (250°)5.8 mphClear
2:00 PM68.0 °F46.4 °F46 %30.02 in30.0 miWest (280°)4.6 mphPartly Cloudy
3:00 PM69.8 °F48.2 °F46 %30.02 in30.0 miSW (220°)9.2 mphPartly Cloudy
4:00 PM69.8 °F46.4 °F43 %30.01 in30.0 miSSW (200°)8.1 mphPartly Cloudy
5:00 PM69.8 °F48.2 °F46 %30.00 in30.0 miSouth (190°)8.1 mphPartly Cloudy
6:00 PM69.8 °F48.2 °F46 %29.99 in30.0 miSW (230°)4.6 mphPartly Cloudy
7:00 PM69.8 °F50.0 °F49 %29.99 in30.0 miSSW (210°)6.9 mphPartly Cloudy
8:00 PM69.0 °F46.0 °F33 %30.00 in28.0 miWest (280°)4.6 mphClear
8:00 PM69.8 °F46.4 °F43 %30.00 in30.0 miWest (270°)3.5 mphPartly Cloudy
9:00 PM66.2 °F46.4 °F49 %30.01 in30.0 miWest (270°)3.5 mphPartly Cloudy
10:00 PM64.4 °F48.2 °F56 %30.01 in15.0 miWSW (250°)3.5 mphClear
11:00 PM62.6 °F50.0 °F63 %30.02 in15.0 miCalmClear
Hourly data recorded from CYUL, located miles away from Montreal, Quebec







STORIES FROM OUR PARTNERS